Location: Country View Observatory
(32.9873°N, 83.6444°W)
Time: 14:52:51
(UTC-04:00)

N. Korean satellite - Visible Passes

Search period start: 17 September 2019 00:00
Search period end: 27 September 2019 00:00
Orbit: 455 x 508 km, 97.2° (Epoch: 16 September)

Date Brightness Start Highest point End Pass type
(mag) Time Alt. Az. Time Alt. Az. Time Alt. Az.
18 Sep 9.8 06:38:20 10° ENE 06:40:23 15° E 06:42:25 10° SE visible
21 Sep 9.1 06:55:13 10° NE 06:58:10 26° E 07:01:07 10° SSE visible
22 Sep 10.1 06:31:27 10° ENE 06:32:50 12° E 06:34:13 10° ESE visible
25 Sep 9.5 06:47:55 10° NE 06:50:37 21° E 06:53:19 10° SSE visible
